,,PressureMeas_1m,,PRMeasQMR101_1,,RHStat155_1m_1,,SRMeasQMS101R_1m,,TAStat155_1m_1,,GenWind_1,,GenWind_1,
2017-03-23, 07:00:06,VALID,918.161,VALID,0.0,VALID,98.524,VALID,51.244,VALID,19.504,VALID,76.0,VALID,0.975,
2017-03-23, 07:01:06,VALID,918.155,VALID,0.0,VALID,98.521,VALID,53.214,VALID,19.534,VALID,53.0,VALID,0.858,
2017-03-23, 07:02:06,VALID,918.15,VALID,0.0,VALID,98.511,VALID,55.878,VALID,19.55,VALID,42.0,VALID,0.883,
2017-03-23, 07:03:06,VALID,918.162,VALID,0.0,VALID,98.546,VALID,58.283,VALID,19.587,VALID,34.0,VALID,0.578,
2017-03-23, 07:04:06,VALID,918.183,VALID,0.0,VALID,98.53,VALID,60.173,VALID,19.624,VALID,48.0,VALID,0.627,
2017-03-23, 07:05:06,VALID,918.211,VALID,0.0,VALID,98.509,VALID,60.608,VALID,19.623,VALID,46.0,VALID,0.291,
2017-03-23, 07:06:06,VALID,918.223,VALID,0.0,VALID,98.509,VALID,59.797,VALID,19.668,VALID,46.0,VALID,0.0,
2017-03-23, 07:07:06,VALID,918.223,VALID,0.0,VALID,98.512,VALID,59.849,VALID,19.691,VALID,85.0,VALID,0.084,
2017-03-23, 07:08:06,VALID,918.218,VALID,0.0,VALID,98.524,VALID,60.879,VALID,19.715,VALID,167.0,VALID,0.312,
2017-03-23, 07:09:06,VALID,918.22,VALID,0.0,VALID,98.529,VALID,62.645,VALID,19.757,VALID,174.0,VALID,0.402,
2017-03-23, 07:10:06,VALID,918.22,VALID,0.0,VALID,98.556,VALID,62.774,VALID,19.829,VALID,184.0,VALID,0.607,
2017-03-23, 07:11:06,VALID,918.221,VALID,0.0,VALID,98.557,VALID,62.947,VALID,19.89,VALID,190.0,VALID,0.475,
2017-03-23, 07:12:06,VALID,918.225,VALID,0.0,VALID,98.557,VALID,62.593,VALID,19.939,VALID,178.0,VALID,0.535,
2017-03-23, 07:13:06,VALID,918.211,VALID,0.0,VALID,98.553,VALID,64.211,VALID,19.97,VALID,160.0,VALID,0.552,
2017-03-23, 07:14:06,VALID,918.213,VALID,0.0,VALID,98.534,VALID,68.413,VALID,19.979,VALID,115.0,VALID,0.572,
2017-03-23, 07:15:06,VALID,918.226,VALID,0.0,VALID,98.519,VALID,72.146,VALID,19.995,VALID,104.0,VALID,0.15,
2017-03-23, 07:16:06,VALID,918.266,VALID,0.0,VALID,98.516,VALID,77.317,VALID,20.005,VALID,111.0,VALID,0.103,
2017-03-23, 07:17:06,VALID,918.285,VALID,0.0,VALID,98.515,VALID,82.035,VALID,20.017,VALID,124.0,VALID,0.09,
2017-03-23, 07:18:06,VALID,918.307,VALID,0.0,VALID,98.527,VALID,82.024,VALID,20.066,VALID,123.0,VALID,0.0,
2017-03-23, 07:19:06,VALID,918.332,VALID,0.0,VALID,98.541,VALID,80.629,VALID,20.135,VALID,117.0,VALID,0.031,
2017-03-23, 07:20:06,VALID,918.357,VALID,0.0,VALID,98.537,VALID,77.637,VALID,20.186,VALID,111.0,VALID,0.068,
2017-03-23, 07:21:06,VALID,918.358,VALID,0.0,VALID,98.561,VALID,73.1,VALID,20.26,VALID,108.0,VALID,0.0,
2017-03-23, 07:22:06,VALID,918.353,VALID,0.0,VALID,98.532,VALID,68.889,VALID,20.283,VALID,107.0,VALID,0.0,
2017-03-23, 07:23:06,VALID,918.349,VALID,0.0,VALID,98.541,VALID,65.733,VALID,20.317,VALID,101.0,VALID,0.006,
2017-03-23, 07:24:06,VALID,918.331,VALID,0.0,VALID,98.504,VALID,64.1,VALID,20.292,VALID,84.0,VALID,0.035,
2017-03-23, 07:25:06,VALID,918.311,VALID,0.0,VALID,98.491,VALID,64.691,VALID,20.269,VALID,84.0,VALID,0.026,
2017-03-23, 07:26:06,VALID,918.294,VALID,0.0,VALID,98.509,VALID,67.07,VALID,20.29,VALID,82.0,VALID,0.079,
2017-03-23, 07:27:06,VALID,918.276,VALID,0.0,VALID,98.504,VALID,70.101,VALID,20.292,VALID,39.0,VALID,0.131,
2017-03-23, 07:28:06,VALID,918.285,VALID,0.0,VALID,98.495,VALID,73.903,VALID,20.281,VALID,38.0,VALID,0.149,
2017-03-23, 07:29:06,VALID,918.294,VALID,0.0,VALID,98.504,VALID,76.791,VALID,20.303,VALID,42.0,VALID,0.054,
2017-03-23, 07:30:06,VALID,918.3,VALID,0.0,VALID,98.506,VALID,79.771,VALID,20.32,VALID,62.0,VALID,0.286,
2017-03-23, 07:31:06,VALID,918.301,VALID,0.0,VALID,98.492,VALID,83.404,VALID,20.297,VALID,67.0,VALID,0.218,
2017-03-23, 07:32:06,VALID,918.296,VALID,0.0,VALID,98.476,VALID,88.183,VALID,20.311,VALID,55.0,VALID,0.202,
2017-03-23, 07:33:06,VALID,918.296,VALID,0.0,VALID,98.487,VALID,94.478,VALID,20.371,VALID,67.0,VALID,0.149,
2017-03-23, 07:34:06,VALID,918.306,VALID,0.0,VALID,98.497,VALID,101.452,VALID,20.432,VALID,69.0,VALID,0.33,
2017-03-23, 07:35:06,VALID,918.306,VALID,0.0,VALID,98.456,VALID,107.159,VALID,20.396,VALID,69.0,VALID,0.383,
2017-03-23, 07:36:06,VALID,918.309,VALID,0.0,VALID,98.497,VALID,109.851,VALID,20.445,VALID,42.0,VALID,0.443,
2017-03-23, 07:37:06,VALID,918.296,VALID,0.0,VALID,98.454,VALID,112.322,VALID,20.426,VALID,48.0,VALID,0.766,
2017-03-23, 07:38:06,VALID,918.281,VALID,0.0,VALID,98.445,VALID,116.087,VALID,20.425,VALID,44.0,VALID,1.023,
2017-03-23, 07:39:06,VALID,918.243,VALID,0.0,VALID,98.447,VALID,118.404,VALID,20.445,VALID,42.0,VALID,1.191,
2017-03-23, 07:40:06,VALID,918.21,VALID,0.0,VALID,98.465,VALID,118.547,VALID,20.483,VALID,47.0,VALID,1.305,
2017-03-23, 07:41:06,VALID,918.181,VALID,0.0,VALID,98.443,VALID,122.756,VALID,20.503,VALID,48.0,VALID,1.12,
2017-03-23, 07:42:06,VALID,918.191,VALID,0.0,VALID,98.421,VALID,123.495,VALID,20.505,VALID,57.0,VALID,0.943,
2017-03-23, 07:43:06,VALID,918.191,VALID,0.0,VALID,98.395,VALID,124.803,VALID,20.46,VALID,73.0,VALID,0.77,
2017-03-23, 07:44:06,VALID,918.22,VALID,0.0,VALID,98.317,VALID,129.981,VALID,20.363,VALID,107.0,VALID,0.534,
2017-03-23, 07:45:06,VALID,918.246,VALID,0.0,VALID,98.344,VALID,136.748,VALID,20.381,VALID,153.0,VALID,0.286,
2017-03-23, 07:46:06,VALID,918.262,VALID,0.0,VALID,98.352,VALID,141.956,VALID,20.403,VALID,160.0,VALID,0.426,
2017-03-23, 07:47:06,VALID,918.251,VALID,0.0,VALID,98.375,VALID,147.545,VALID,20.427,VALID,164.0,VALID,0.156,
2017-03-23, 07:48:06,VALID,918.238,VALID,0.0,VALID,98.394,VALID,147.771,VALID,20.461,VALID,118.0,VALID,0.273,
2017-03-23, 07:49:06,VALID,918.215,VALID,0.0,VALID,98.39,VALID,145.96,VALID,20.482,VALID,115.0,VALID,0.305,
2017-03-23, 07:50:06,VALID,918.214,VALID,0.0,VALID,98.395,VALID,150.154,VALID,20.52,VALID,118.0,VALID,0.141,
2017-03-23, 07:51:06,VALID,918.223,VALID,0.0,VALID,98.422,VALID,162.157,VALID,20.622,VALID,117.0,VALID,0.284,
2017-03-23, 07:52:06,VALID,918.231,VALID,0.0,VALID,98.419,VALID,171.0,VALID,20.645,VALID,139.0,VALID,0.566,
2017-03-23, 07:53:06,VALID,918.235,VALID,0.0,VALID,98.272,VALID,176.221,VALID,20.506,VALID,150.0,VALID,0.473,
2017-03-23, 07:54:06,VALID,918.221,VALID,0.0,VALID,98.318,VALID,181.617,VALID,20.546,VALID,145.0,VALID,0.38,
2017-03-23, 07:55:06,VALID,918.191,VALID,0.0,VALID,98.374,VALID,174.383,VALID,20.645,VALID,116.0,VALID,0.337,
2017-03-23, 07:56:06,VALID,918.156,VALID,0.0,VALID,98.305,VALID,169.198,VALID,20.587,VALID,107.0,VALID,0.502,
2017-03-23, 07:57:06,VALID,918.109,VALID,0.0,VALID,98.345,VALID,169.481,VALID,20.631,VALID,129.0,VALID,0.444,
2017-03-23, 07:58:06,VALID,918.069,VALID,0.0,VALID,98.356,VALID,165.954,VALID,20.687,VALID,129.0,VALID,0.602,
2017-03-23, 07:59:06,VALID,918.027,VALID,0.0,VALID,98.369,VALID,163.89,VALID,20.728,VALID,139.0,VALID,0.784,
2017-03-23, 08:00:06,VALID,917.988,VALID,0.0,VALID,98.354,VALID,163.327,VALID,20.775,VALID,136.0,VALID,1.06,
2017-03-23, 08:01:06,VALID,917.965,VALID,0.0,VALID,98.321,VALID,164.795,VALID,20.78,VALID,126.0,VALID,1.252,
2017-03-23, 08:02:06,VALID,917.976,VALID,0.0,VALID,98.277,VALID,161.968,VALID,20.779,VALID,151.0,VALID,1.603,
2017-03-23, 08:03:06,VALID,918.004,VALID,0.0,VALID,98.083,VALID,155.172,VALID,20.617,VALID,150.0,VALID,1.719,
2017-03-23, 08:04:06,VALID,918.049,VALID,0.0,VALID,97.901,VALID,149.58,VALID,20.436,VALID,156.0,VALID,1.764,
2017-03-23, 08:05:06,VALID,918.114,VALID,0.0,VALID,97.991,VALID,144.458,VALID,20.402,VALID,161.0,VALID,1.296,
2017-03-23, 08:06:06,VALID,918.158,VALID,0.0,VALID,98.204,VALID,147.929,VALID,20.484,VALID,165.0,VALID,1.498,
2017-03-23, 08:07:06,VALID,918.205,VALID,0.0,VALID,98.231,VALID,147.719,VALID,20.502,VALID,160.0,VALID,1.49,
2017-03-23, 08:08:06,VALID,918.224,VALID,0.0,VALID,98.184,VALID,153.163,VALID,20.458,VALID,162.0,VALID,1.502,
2017-03-23, 08:09:06,VALID,918.234,VALID,0.0,VALID,98.131,VALID,159.145,VALID,20.404,VALID,160.0,VALID,1.622,
2017-03-23, 08:10:06,VALID,918.221,VALID,0.0,VALID,98.13,VALID,163.841,VALID,20.381,VALID,152.0,VALID,1.647,
2017-03-23, 08:11:06,VALID,918.237,VALID,0.0,VALID,98.171,VALID,166.527,VALID,20.397,VALID,144.0,VALID,1.38,
2017-03-23, 08:12:06,VALID,918.236,VALID,0.0,VALID,98.185,VALID,173.168,VALID,20.409,VALID,126.0,VALID,1.341,
2017-03-23, 08:13:06,VALID,918.237,VALID,0.0,VALID,98.204,VALID,177.071,VALID,20.419,VALID,127.0,VALID,1.454,
2017-03-23, 08:14:06,VALID,918.232,VALID,0.0,VALID,98.226,VALID,178.022,VALID,20.456,VALID,147.0,VALID,1.046,
2017-03-23, 08:15:06,VALID,918.231,VALID,0.0,VALID,98.228,VALID,180.101,VALID,20.477,VALID,158.0,VALID,0.814,
2017-03-23, 08:16:06,VALID,918.249,VALID,0.0,VALID,98.236,VALID,182.072,VALID,20.529,VALID,161.0,VALID,0.486,
2017-03-23, 08:17:06,VALID,918.268,VALID,0.0,VALID,98.275,VALID,183.455,VALID,20.59,VALID,161.0,VALID,0.661,
2017-03-23, 08:18:06,VALID,918.259,VALID,0.0,VALID,98.214,VALID,184.356,VALID,20.587,VALID,151.0,VALID,0.985,
2017-03-23, 08:19:06,VALID,918.234,VALID,0.0,VALID,98.188,VALID,185.388,VALID,20.602,VALID,155.0,VALID,1.2,
2017-03-23, 08:20:06,VALID,918.217,VALID,0.0,VALID,98.222,VALID,186.658,VALID,20.695,VALID,162.0,VALID,1.064,
2017-03-23, 08:21:06,VALID,918.204,VALID,0.0,VALID,98.219,VALID,188.389,VALID,20.756,VALID,158.0,VALID,1.184,
2017-03-23, 08:22:06,VALID,918.205,VALID,0.0,VALID,98.061,VALID,189.913,VALID,20.734,VALID,158.0,VALID,0.897,
2017-03-23, 08:23:06,VALID,918.236,VALID,0.0,VALID,98.087,VALID,192.022,VALID,20.815,VALID,172.0,VALID,0.769,
2017-03-23, 08:24:06,VALID,918.263,VALID,0.0,VALID,98.001,VALID,195.347,VALID,20.857,VALID,187.0,VALID,0.594,
2017-03-23, 08:25:06,VALID,918.294,VALID,0.0,VALID,97.83,VALID,200.771,VALID,20.877,VALID,180.0,VALID,0.62,
2017-03-23, 08:26:06,VALID,918.313,VALID,0.0,VALID,97.716,VALID,206.956,VALID,20.911,VALID,188.0,VALID,0.8,
2017-03-23, 08:27:06,VALID,918.321,VALID,0.0,VALID,97.677,VALID,213.847,VALID,20.955,VALID,178.0,VALID,0.828,
2017-03-23, 08:28:06,VALID,918.318,VALID,0.0,VALID,97.464,VALID,220.07,VALID,20.965,VALID,181.0,VALID,0.451,
2017-03-23, 08:29:06,VALID,918.325,VALID,0.0,VALID,97.485,VALID,223.625,VALID,21.04,VALID,185.0,VALID,0.462,
2017-03-23, 08:30:06,VALID,918.336,VALID,0.0,VALID,97.42,VALID,229.591,VALID,21.108,VALID,198.0,VALID,0.617,
2017-03-23, 08:31:06,VALID,918.355,VALID,0.0,VALID,97.371,VALID,235.524,VALID,21.174,VALID,210.0,VALID,0.469,
2017-03-23, 08:32:06,VALID,918.376,VALID,0.0,VALID,97.305,VALID,245.944,VALID,21.266,VALID,225.0,VALID,0.458,
2017-03-23, 08:33:06,VALID,918.384,VALID,0.0,VALID,97.103,VALID,250.925,VALID,21.337,VALID,228.0,VALID,0.446,
2017-03-23, 08:34:06,VALID,918.406,VALID,0.0,VALID,96.911,VALID,253.582,VALID,21.377,VALID,241.0,VALID,0.837,
2017-03-23, 08:35:06,VALID,918.421,VALID,0.0,VALID,96.466,VALID,263.566,VALID,21.399,VALID,229.0,VALID,0.527,
2017-03-23, 08:36:06,VALID,918.435,VALID,0.0,VALID,96.635,VALID,279.489,VALID,21.496,VALID,269.0,VALID,0.682,
2017-03-23, 08:37:06,VALID,918.456,VALID,0.0,VALID,96.311,VALID,289.269,VALID,21.526,VALID,209.0,VALID,0.672,
2017-03-23, 08:38:06,VALID,918.487,VALID,0.0,VALID,96.088,VALID,283.951,VALID,21.563,VALID,248.0,VALID,0.729,
2017-03-23, 08:39:06,VALID,918.522,VALID,0.0,VALID,95.698,VALID,288.247,VALID,21.547,VALID,246.0,VALID,0.672,
2017-03-23, 08:40:06,VALID,918.582,VALID,0.0,VALID,96.193,VALID,284.84,VALID,21.591,VALID,263.0,VALID,0.312,
2017-03-23, 08:41:06,VALID,918.595,VALID,0.0,VALID,96.241,VALID,288.389,VALID,21.617,VALID,257.0,VALID,0.357,
2017-03-23, 08:42:06,VALID,918.61,VALID,0.0,VALID,95.964,VALID,288.875,VALID,21.606,VALID,248.0,VALID,0.719,
2017-03-23, 08:43:06,VALID,918.62,VALID,0.0,VALID,96.247,VALID,294.051,VALID,21.614,VALID,252.0,VALID,0.112,
2017-03-23, 08:44:06,VALID,918.631,VALID,0.0,VALID,96.307,VALID,299.422,VALID,21.65,VALID,247.0,VALID,0.295,
2017-03-23, 08:45:06,VALID,918.655,VALID,0.0,VALID,96.187,VALID,298.48,VALID,21.69,VALID,273.0,VALID,0.382,
2017-03-23, 08:46:06,VALID,918.654,VALID,0.0,VALID,95.888,VALID,300.139,VALID,21.705,VALID,247.0,VALID,0.178,
2017-03-23, 08:47:06,VALID,918.668,VALID,0.0,VALID,95.848,VALID,305.745,VALID,21.735,VALID,301.0,VALID,0.389,
2017-03-23, 08:48:06,VALID,918.671,VALID,0.0,VALID,95.563,VALID,317.831,VALID,21.727,VALID,234.0,VALID,0.313,
2017-03-23, 08:49:06,VALID,918.681,VALID,0.0,VALID,95.098,VALID,329.863,VALID,21.743,VALID,215.0,VALID,0.202,
2017-03-23, 08:50:06,VALID,918.699,VALID,0.0,VALID,94.819,VALID,336.263,VALID,21.803,VALID,227.0,VALID,0.291,
2017-03-23, 08:51:06,VALID,918.708,VALID,0.0,VALID,94.7,VALID,333.248,VALID,21.884,VALID,248.0,VALID,0.201,
2017-03-23, 08:52:06,VALID,918.734,VALID,0.0,VALID,94.476,VALID,323.125,VALID,21.925,VALID,214.0,VALID,0.17,
2017-03-23, 08:53:06,VALID,918.766,VALID,0.0,VALID,94.502,VALID,288.064,VALID,21.98,VALID,182.0,VALID,0.025,
2017-03-23, 08:54:06,VALID,918.781,VALID,0.0,VALID,94.027,VALID,269.969,VALID,22.05,VALID,188.0,VALID,0.321,
2017-03-23, 08:55:06,VALID,918.786,VALID,0.0,VALID,93.198,VALID,244.752,VALID,22.098,VALID,182.0,VALID,0.312,
2017-03-23, 08:56:06,VALID,918.795,VALID,0.0,VALID,92.888,VALID,240.301,VALID,22.139,VALID,180.0,VALID,0.445,
2017-03-23, 08:57:06,VALID,918.817,VALID,0.0,VALID,91.3,VALID,229.143,VALID,22.157,VALID,197.0,VALID,0.329,
2017-03-23, 08:58:06,VALID,918.806,VALID,0.0,VALID,91.816,VALID,230.9,VALID,22.178,VALID,185.0,VALID,0.864,
2017-03-23, 08:59:06,VALID,918.805,VALID,0.0,VALID,91.4,VALID,239.293,VALID,22.184,VALID,181.0,VALID,0.765,
2017-03-23, 09:00:06,VALID,918.811,VALID,0.0,VALID,91.224,VALID,249.453,VALID,22.224,VALID,186.0,VALID,0.471,
2017-03-23, 09:01:06,VALID,918.835,VALID,0.0,VALID,92.118,VALID,256.052,VALID,22.289,VALID,192.0,VALID,0.716,
2017-03-23, 09:02:06,VALID,918.855,VALID,0.0,VALID,92.271,VALID,264.669,VALID,22.303,VALID,188.0,VALID,0.733,
2017-03-23, 09:03:06,VALID,918.877,VALID,0.0,VALID,92.717,VALID,269.483,VALID,22.289,VALID,168.0,VALID,0.638,
2017-03-23, 09:04:06,VALID,918.882,VALID,0.0,VALID,93.108,VALID,272.349,VALID,22.292,VALID,123.0,VALID,0.745,
2017-03-23, 09:05:06,VALID,918.899,VALID,0.0,VALID,93.356,VALID,266.191,VALID,22.311,VALID,178.0,VALID,0.594,
2017-03-23, 09:06:06,VALID,918.905,VALID,0.0,VALID,92.589,VALID,259.507,VALID,22.34,VALID,155.0,VALID,0.566,
2017-03-23, 09:07:06,VALID,918.9,VALID,0.0,VALID,92.109,VALID,267.897,VALID,22.279,VALID,147.0,VALID,0.744,
2017-03-23, 09:08:06,VALID,918.905,VALID,0.0,VALID,92.335,VALID,271.062,VALID,22.188,VALID,156.0,VALID,0.598,
2017-03-23, 09:09:06,VALID,918.905,VALID,0.0,VALID,92.568,VALID,266.551,VALID,22.193,VALID,160.0,VALID,0.87,
2017-03-23, 09:10:06,VALID,918.928,VALID,0.0,VALID,92.673,VALID,268.083,VALID,22.175,VALID,174.0,VALID,0.697,
2017-03-23, 09:11:06,VALID,918.949,VALID,0.0,VALID,92.22,VALID,267.155,VALID,22.208,VALID,188.0,VALID,0.592,
2017-03-23, 09:12:06,VALID,918.969,VALID,0.0,VALID,92.565,VALID,264.065,VALID,22.304,VALID,182.0,VALID,0.979,
2017-03-23, 09:13:06,VALID,918.973,VALID,0.0,VALID,91.818,VALID,264.796,VALID,22.339,VALID,175.0,VALID,1.024,
2017-03-23, 09:14:06,VALID,919.0,VALID,0.0,VALID,91.45,VALID,269.983,VALID,22.316,VALID,193.0,VALID,0.591,
2017-03-23, 09:15:06,VALID,919.006,VALID,0.0,VALID,91.816,VALID,280.577,VALID,22.351,VALID,190.0,VALID,0.468,
2017-03-23, 09:16:06,VALID,919.011,VALID,0.0,VALID,91.405,VALID,297.991,VALID,22.372,VALID,171.0,VALID,0.652,
2017-03-23, 09:17:06,VALID,919.007,VALID,0.0,VALID,91.551,VALID,341.111,VALID,22.367,VALID,159.0,VALID,0.742,
2017-03-23, 09:18:06,VALID,919.002,VALID,0.0,VALID,91.204,VALID,421.569,VALID,22.362,VALID,190.0,VALID,0.449,
2017-03-23, 09:19:06,VALID,918.996,VALID,0.0,VALID,91.039,VALID,407.212,VALID,22.458,VALID,171.0,VALID,0.184,
2017-03-23, 09:20:06,VALID,918.99,VALID,0.0,VALID,89.139,VALID,397.428,VALID,22.599,VALID,191.0,VALID,0.319,
2017-03-23, 09:21:06,VALID,918.966,VALID,0.0,VALID,87.585,VALID,364.372,VALID,22.701,VALID,192.0,VALID,0.005,
